Regional Weather Roundup
Issued by NWS

Home | Current Version | Previous Version | Text Only | Print | Product List | Glossary On
Versions: 1 2 3 4 5 6 7 8 9 10 11 12 13 14 15 16 17 18 19 20 21 22 23 24 25 26 27 28 29 30 31 32 33 34 35 36 37 38 39 40 41 42 43 44 45 46 47 48 49 50
517
ASUS43 KMPX 231101
RWRMN
WEATHER ROUNDUP FOR MINNESOTA
NATIONAL WEATHER SERVICE TWIN CITIES/CHANHASSEN MN
500 AM CST TUE JAN 23 2018


NOTE: "FAIR" INDICATES FEW OR NO CLOUDS BELOW 12,000 FEET WITH NO
SIGNIFICANT WEATHER AND/OR OBSTRUCTIONS TO VISIBILITY. N/A MEANS
CURRENT SKY AND/OR WEATHER CONDITIONS ARE NOT AVAILABLE.

MNZ060>063-068>070-231200-
   Twin Cities Metro

CITY           SKY/WX    TMP DP  RH WIND       PRES   REMARKS
TWIN CITIES    FAIR      20  14  77 N10       29.92R WCI   9
ST PAUL        FAIR      19  13  77 N14       29.93R WCI   6
CRYSTAL        FAIR      19  11  70 NW10      29.92R WCI   7
BLAINE         FAIR      19  14  79 N10       29.92R WCI   8
LAKEVILLE      FAIR      18  14  86 NW12      29.91R WCI   5
EDEN PRAIRIE   FAIR      20  13  74 N10G20    29.91R WCI   9
SOUTH ST PAUL  FAIR      20  13  76 N14G20    29.92R WCI   7
LAKE ELMO      MOCLDY    19  14  79 N13       29.91R WCI   7
$$
MNZ001>005-007-008-013>017-022>024-027-028-231200-
   Northwest Minnesota

CITY           SKY/WX    TMP DP  RH WIND       PRES   REMARKS
BEMIDJI        CLOUDY    18  14  85 N6        30.02R WCI   9
HALLOCK        CLOUDY    21  16  79 SE5       30.06S WCI  15
ROSEAU         CLOUDY    19  14  79 E5        30.06S WCI  13
WARROAD        CLOUDY    16  12  86 E6        30.06F WCI   7
CROOKSTON      CLOUDY    19  16  86 CALM      30.07F
FOSSTON        CLOUDY    18  12  79 NE5       30.03F WCI  11
DETROIT LAKES  CLOUDY    21  18  86 NE6       30.02F WCI  14
MOORHEAD       CLOUDY    19  16  86 N5        30.07S WCI  13
PARK RAPIDS    CLOUDY    19  13  77 N13       30.00R WCI   6
MAHNOMEN       CLOUDY    19  15  84 NE9       30.02F WCI   8
$$
MNZ006-009>011-018-025>026-231200-
   North Central Minnesota

CITY           SKY/WX    TMP DP  RH WIND       PRES   REMARKS
BAUDETTE       CLOUDY    13   9  84 N5        30.05R WCI   5
FLAG ISLAND    CLOUDY    12   9  85 NE3       30.06F
INTL FALLS     FAIR       6   1  80 N8        30.04S WCI  -7
WASKISH        MOCLDY    14  10  85 NE3       30.04R
BIG FORK       FAIR       7   3  85 N5        30.02R WCI  -2
LONGVILLE      CLOUDY    14  12  92 N9        30.00R WCI   2
GRAND RAPIDS   FAIR       6   3  87 NW10      30.01  WCI  -9
CRANE LAKE     FAIR       0  -2  92 NW3       30.06R
ORR            FAIR       1  -4  78 CALM      29.98R
COOK           CLOUDY     1   0  92 CALM      29.99R
WALKER         CLOUDY    17  12  82 N7        30.00S WCI   7
$$
MNZ012-019>021-037-231200-
   Northeast Minnesota

CITY           SKY/WX    TMP DP  RH WIND       PRES   REMARKS
DULUTH         CLOUDY     9   3  77 N14       29.89R WCI  -7
HIBBING        FAIR       4   1  88 N7        29.97R WCI  -8
EVELETH        FAIR       4  -2  76 N6        29.97R WCI  -6
DULUTH HARBOR  CLOUDY    16  10  79 NW12      29.96R WCI   3
TWO HARBORS    CLOUDY    12   7  79 NW7       29.89S WCI   2
SILVER BAY     CLOUDY    10   7  85 VRB5      29.90R WCI   2
GRAND MARAIS     N/A     13   1  59 N13G29    29.94R WCI  -2
G MARAIS ARPRT CLOUDY     3  -6  66 N8        29.86R WCI -10
$$
MNZ029>031-032-039>041-046>048-054>057-064-231200-
   West Central Minnesota

CITY           SKY/WX    TMP DP  RH WIND       PRES   REMARKS
FERGUS FALLS   CLOUDY    19  16  86 N7        30.04S WCI  10
MORRIS         CLOUDY    21  18  86 NW14      30.02S WCI   8
ALEXANDRIA     CLOUDY    21  16  81 N14       30.00R WCI   8
ELBOW LAKE     CLOUDY    21  17  84 NW10      30.03S WCI   9
WADENA         CLOUDY    18  12  79 N6        30.01R WCI   9
GLENWOOD       FAIR      19  18  93 N10       30.00R WCI   8
APPLETON       CLOUDY    25  18  74 N14       30.04R WCI  13
BENSON         CLOUDY    23  18  80 N15       30.04R WCI  10
ORTONVILLE     CLOUDY    21  18  86 N16       30.04S WCI   7
MADISON        CLOUDY    25  21  86 NW15G22   30.05R WCI  12
WILLMAR        CLOUDY    23  18  80 NW14      30.02R WCI  11
$$
MNZ033>034-036-042>043-049>051-058-059-231200-
   Central Minnesota

CITY           SKY/WX    TMP DP  RH WIND       PRES   REMARKS
ST CLOUD       FAIR      19  14  81 N14       29.96R WCI   6
SAUK CENTRE      N/A     18  14  86 NW9       30.00R WCI   7
PAYNESVILLE    FAIR      20  18  91 NW9       29.99R WCI   9
AITKIN         FAIR      10   7  85 N8        29.96R WCI  -1
PINE RIVER     CLOUDY    16  12  86 N8        30.03R WCI   5
BRAINERD       FAIR      15  11  83 N12       29.99R WCI   2
STAPLES        FAIR      12  10  92 NW8       30.00R WCI   1
LONG PRAIRIE   FAIR      18  14  86 NW9       30.00R WCI   6
LITTLE FALLS     N/A    N/A N/A N/A NW7         N/A
LITCHFIELD     MOCLDY    21  18  86 NW10G17   29.97R WCI  10
BUFFALO        FAIR      19  15  82 NW8G17    29.96R FOG     WCI   9
MAPLE LAKE     FAIR      21  17  84 MISG      29.96R
HUTCHINSON     FAIR      21  17  85 NW13      29.97R WCI   8
$$
MNZ037-044-045-052-053-231200-
   East Central Minnesota

CITY           SKY/WX    TMP DP  RH WIND       PRES   REMARKS
PRINCETON      FAIR      19  14  79 NW8       29.94R WCI   9
MORA           FAIR      18  12  79 N8        29.95R WCI   7
CAMBRIDGE      FAIR      19  10  68 NW6       29.94R WCI  11
RUSH CITY      CLOUDY    17  11  79 N16G22    29.93R WCI   1
MOOSE LAKE     CLOUDY    14   9  79 N9        29.93R WCI   2
HINCKLEY       CLOUDY    16  12  86 N10       29.93R WCI   3
CLOQUET        CLOUDY     9   3  78 N15       29.92R WCI  -8
MCGREGOR       FAIR      12   9  85 N9        29.98R WCI   0
$$
MNZ071>073-080-081-089-090-097-098-231200-
   Southwest Minnesota

CITY           SKY/WX    TMP DP  RH WIND       PRES   REMARKS
MONTEVIDEO     CLOUDY    23  18  80 N15       30.03R WCI  10
GRANITE FALLS  CLOUDY    26  20  79 NW14      30.03R WCI  14
CANBY          CLOUDY    24  20  86 NW12G18   30.05R WCI  13
MARSHALL       CLOUDY    23  19  85 N18       30.02R WCI   9
REDWOOD FALLS  CLEAR     21  18  88 NW10      29.99R WCI  10
OLIVIA         PTCLDY    21  19  93 NW10      29.99R WCI  10
PIPESTONE      CLOUDY    19  18  93 N16G24    30.00R WCI   5
WINDOM         CLOUDY    21   9  58 NW21      29.97R WCI   6
WORTHINGTON    LGT SNOW  21  19  92 NW23      29.97R FOG     WCI   5
JACKSON        CLOUDY    21  19  93 NW20G35   29.96R WCI   6
TRACY          CLOUDY    23  20  88 N18G25    29.99S WCI   9
SLAYTON        CLOUDY    21  19  94 NW20G28   29.99R WCI   5
$$
MNZ065>067-074>077-082>085-091>093-231200-
   South Central Minnesota

CITY           SKY/WX    TMP DP  RH WIND       PRES   REMARKS
MANKATO        FAIR      20  15  81 NW15      29.94R WCI   6
NEW ULM        CLEAR     19  16  86 NW18      29.97R WCI   4
ST JAMES       CLOUDY    19  18  93 NW16      29.97R WCI   5
FAIRMONT       CLOUDY    21  19  92 NW20      29.95R WCI   6
FARIBAULT      FAIR      19  16  86 NW14G20   29.91R WCI   6
OWATONNA         N/A     19  16  86 NW15      29.89R WCI   5
WASECA           N/A     19  16  86 NW16      29.93R WCI   5
ALBERT LEA     MOCLDY    21  16  79 NW13G24   29.87R WCI   9
$$
MNZ078>079-086>088-094>096-231200-
   Southeast Minnesota

CITY           SKY/WX    TMP DP  RH WIND       PRES   REMARKS
ROCHESTER      CLOUDY    22  19  89 NW18G31   29.82R WCI   7
RED WING       MOCLDY    21  14  73 NW8       29.87R WCI  12
STANTON        FAIR      20  14  78 NW12      29.89R WCI   8
DODGE CENTER   MOCLDY    21  18  86 NW17      29.84R WCI   7
WINONA         CLOUDY    28  25  86 NW14      29.79R WCI  17
PRESTON        CLOUDY    23  19  87 N15G21    29.80R WCI  10
$$
ABBREVIATIONS USED IN REMARKS
   TC - TEMPERATURES IN CELSIUS
  WCI - WIND CHILL INDEX
   HX - HEAT INDEX
  VSB - VISIBILITY
$$




USA.gov is the U.S. government's official web portal to all federal, state and local government web resources and services.